Погода в Грибановском

Россия / Воронежская область     51°27′23″N   41°58′47″E
темп.,
°C
ветер,
м/с
пор.,
м/с
влажн.,
%
обл.,
%
осадки,
мм/ч
давл.,
гПа
погр.,
м
26 февраля, пт
пт2600:00+1зсз51098100 0.0 1016290
03:00+1з3699100 0.1 1016126
06:00+1зсз4999100 0.0 1016239
09:00+1зюз48100100 0.5 1015207
12:00+2з612100100 0.4 1014336
15:00+2зюз61499100 0.4 1013443
18:00+2з71598100 0.2 1011462
21:00+2зюз61299100 0.3 1010302
27 февраля, сб
сб2700:00+2з71498100 0.1 1008460
03:00+1з51196100 0.1 1009410
06:00+1зюз61194100 0.0 1007413
09:00+1з61195100 0.1 1007511
12:00+1з611100100 0.1 1006534
15:00+1з61198100 0.1 1005509
18:00+1з6129699 0.0 1005569
21:00+1зсз71297100 0.2 1006663
28 февраля, вс
вс2800:00−6ссз6108898 0.4 1007620
03:00−9ссз6108899 0.4 1010607
06:00−11ссз51090100 0.0 1012641
09:00−11ссз6989100 0.1 1014559
12:00−10ссз6889100 0.0 1015552
15:00−9ссз5888100 0.1 1016570
18:00−10ссз4991100 0.0 1017475
21:00−10ссз489197 0.0 1020521
1 марта, пн
пн100:00−10ссз369485 0.0 1021226
03:00−11ссз349548 0.0 1022127
06:00−12ссз249540 0.0 1023113
09:00−11с359228 0.0 1025304
12:00−9с348536 0.0 1026465
15:00−9ссз358863 0.0 1027426
18:00−10сз239344 0.0 102843
21:00−11сз239322 0.0 102955
2 марта, вт
вт200:00−11з23940 0.0 102854
03:00−10зюз379533 0.0 1027183
06:00−8зюз51192100 0.0 1025284
09:00−5зюз61292100 0.0 1023414
12:00−3зюз71396100 0.3 1020581
15:00−1зюз81397100 1.6 1018613
18:000з61298100 1.9 1015492
21:000зсз61298100 2.8 1014479